Weather History for New River MCAS, NC

Change the Weather History Date:

Saturday, September 7, 2013

  Actual Average Record
Temperature  
Mean Temperature 73 °F -  
Max Temperature 82 °F 81 °F 91 °F (1998)
Min Temperature 64 °F 66 °F 59 °F (1997)
Cooling Degree Days 8    
Growing Degree Days 23 (Base 50)    
Moisture  
Dew Point 60 °F    
Average Humidity 66    
Maximum Humidity 93    
Minimum Humidity 39    
Precipitation  
Precipitation 0.00 in - - ()
Sea Level Pressure  
Sea Level Pressure 30.05 in    
Wind  
Wind Speed 6 mph (NE)    
Max Wind Speed 13 mph    
Max Gust Speed -    
Visibility 10 miles    
Events      
Averages and records for this station are not official NWS values.
T = Trace of Precipitation, MM = Missing Value Source: NWS Daily Summary

Daily Weather History Graph

Daily Weather History Graph

Search for Another Location

Airport:

Trip Planner

Search our weather history database for the weather conditions in past years. The results will help you decide how hot, cold, wet, or windy it might be!

Date:

Astronomy

Sep. 07, 2013 Rise Set
Actual Time 6:47 AM EDT 7:27 PM EDT
Civil Twilight 6:21 AM EDT 7:53 PM EDT
Nautical Twilight 5:51 AM EDT 8:23 PM EDT
Astronomical Twilight 5:20 AM EDT 8:53 PM EDT
Moon 8:51 AM EDT (9/7) 8:33 PM EDT (9/7)
Length of Visible Light 13h 31m
Length of Day
12h 40m
Waxing Crescent, 5% of the Moon is Illuminated
Sep 7
Waxing Crescent
Sep 12
First Quarter
Sep 19
Full
Sep 26
Last Quarter
Oct 4
New

Hourly Weather History & Observations

Time (EDT) Temp. Heat Index Dew Point Humidity Pressure Visibility Wind Dir Wind Speed Gust Speed Precip Events Conditions
12:56 AM 70.0 °F - 62.1 °F 76% 30.09 in 10.0 mi NNE 6.9 mph - N/A   Mostly Cloudy
1:56 AM 69.8 °F - 62.6 °F 78% 30.08 in 10.0 mi NNE 6.9 mph - N/A   Scattered Clouds
2:56 AM 66.2 °F - 60.8 °F 83% 30.09 in 10.0 mi NNE 5.8 mph - N/A   Partly Cloudy
3:56 AM 66.9 °F - 60.1 °F 79% 30.07 in 10.0 mi North 4.6 mph - N/A   Clear
4:56 AM 66.0 °F - 60.1 °F 81% 30.09 in 10.0 mi North 3.5 mph - N/A   Clear
5:56 AM 64.0 °F - 60.1 °F 87% 30.07 in 10.0 mi North 4.6 mph - N/A   Clear
6:56 AM 64.0 °F - 60.1 °F 87% 30.08 in 10.0 mi North 3.5 mph - N/A   Partly Cloudy
7:56 AM 68.0 °F - 60.8 °F 78% 30.08 in 10.0 mi NNE 6.9 mph - N/A   Partly Cloudy
8:56 AM 72.0 °F - 61.0 °F 68% 30.08 in 10.0 mi NNE 6.9 mph - N/A   Partly Cloudy
9:56 AM 75.0 °F - 60.1 °F 60% 30.09 in 10.0 mi North 8.1 mph - N/A   Scattered Clouds
10:56 AM 77.0 °F - 59.0 °F 54% 30.09 in 10.0 mi NNE 12.7 mph - N/A   Mostly Cloudy
11:56 AM 79.0 °F - 55.9 °F 45% 30.08 in 10.0 mi NE 9.2 mph - N/A   Mostly Cloudy
12:56 PM 80.1 °F 79.9 °F 53.1 °F 39% 30.06 in 10.0 mi NE 6.9 mph - N/A   Scattered Clouds
1:56 PM 81.0 °F 80.8 °F 55.9 °F 42% 30.05 in 10.0 mi NNE 5.8 mph - N/A   Scattered Clouds
2:56 PM 82.0 °F 81.4 °F 55.0 °F 39% 30.03 in 10.0 mi Variable 5.8 mph - N/A   Scattered Clouds
3:56 PM 82.0 °F 81.6 °F 55.9 °F 41% 30.01 in 10.0 mi Variable 4.6 mph - N/A   Partly Cloudy
5:56 PM 81.0 °F 81.0 °F 57.0 °F 44% 29.99 in 10.0 mi ENE 3.5 mph - N/A   Partly Cloudy
6:56 PM 77.0 °F - 57.0 °F 50% 29.98 in 10.0 mi North - - N/A   Partly Cloudy
7:56 PM 73.0 °F - 62.1 °F 68% 29.99 in 10.0 mi South 3.5 mph - N/A   Clear
8:56 PM 70.0 °F - 63.0 °F 78% 29.99 in 10.0 mi SSE 3.5 mph - N/A   Clear
9:56 PM 69.1 °F - 63.0 °F 81% 30.01 in 10.0 mi SSE 4.6 mph - N/A   Clear
10:56 PM 70.0 °F - 63.0 °F 78% 30.00 in 10.0 mi SE 3.5 mph - N/A   Clear
11:56 PM 66.0 °F - 64.0 °F 93% 29.99 in 10.0 mi Calm Calm - N/A   Clear